Theta_e
347 344 346 347 344 342 344 342 339 339 340 339 338 338 339 343 348 351 351 346 339 337 337 336 337 337 335 337 337 337 337 337 337 338 339 338 336 336 335 335 335 335 336 334 331 330 329 326 325 325 326 326 327 327 326 325 325 325 326 327 327 327 327 327 327 328 328 329 329 328 328 328 327 327
350 347 344 344 344 345 346 345 341 339 339 339 338 338 338 340 343 346 350 349 341 336 337 334 335 336 336 336 337 337 337 337 337 338 338 338 337 336 335 335 335 336 337 336 333 331 328 326 325 325 326 327 327 327 327 326 325 325 326 327 327 327 327 326 326 326 327 327 327 326 326 325 325 325
352 351 347 342 341 344 346 347 345 342 340 340 339 338 339 340 341 340 345 350 344 337 337 336 335 336 336 336 336 337 337 337 337 337 338 337 337 337 336 336 337 338 337 334 331 330 328 326 325 326 328 329 328 328 327 327 326 325 325 326 327 326 326 325 325 325 325 325 324 323 322 321 321 321
353 352 351 348 342 343 345 347 348 346 342 340 339 340 341 342 342 341 343 347 345 340 338 337 337 337 336 337 337 336 337 336 337 337 337 337 337 337 338 338 339 339 338 334 330 328 327 326 326 328 330 331 330 329 327 327 326 324 324 325 325 325 324 324 324 324 323 322 321 320 320 319 319 319
354 352 352 352 348 344 344 345 346 347 344 341 339 340 343 342 342 342 342 343 344 342 340 338 337 337 336 337 337 337 337 337 338 338 338 338 338 337 338 339 339 339 338 337 333 328 328 329 329 331 332 332 331 331 328 326 324 323 323 324 324 323 323 323 324 323 322 321 320 319 319 319 319 319
356 353 352 352 352 348 345 343 345 346 345 344 342 341 342 342 342 342 341 342 343 343 341 338 338 337 337 337 338 337 337 338 339 339 339 339 339 338 337 339 339 339 339 338 334 331 331 334 334 333 333 332 333 333 329 326 324 324 324 324 323 323 323 323 323 322 321 320 319 319 319 319 319 319
356 354 353 353 353 351 348 345 344 344 346 346 345 343 341 342 342 342 341 341 343 343 342 341 339 338 339 339 338 338 339 339 339 339 339 339 339 337 336 338 339 339 338 336 334 334 335 335 334 334 333 333 334 334 331 327 327 327 326 326 325 324 323 323 322 321 320 319 319 319 319 319 319 319
357 355 354 354 353 352 350 348 346 344 345 346 346 344 343 342 342 342 342 342 342 343 343 342 341 341 340 340 339 339 339 340 339 339 339 339 340 338 336 336 337 338 338 336 335 337 337 336 335 335 335 335 335 335 332 329 329 328 327 326 325 324 323 323 322 321 321 320 319 320 320 319 318 318
358 356 354 353 354 353 351 350 349 347 346 346 347 346 345 344 342 342 343 343 342 342 342 343 343 342 341 340 340 339 339 340 340 340 340 340 341 339 337 336 337 340 340 337 337 338 337 337 336 336 336 336 336 335 333 330 329 328 327 326 324 324 323 323 323 322 321 321 321 321 319 317 317 317
358 357 356 354 354 354 352 351 350 349 347 346 347 347 346 345 344 343 344 344 343 343 342 342 343 343 341 341 340 339 339 340 340 340 340 341 341 340 339 337 338 340 340 339 338 338 338 338 337 336 335 335 335 335 333 331 329 328 327 326 325 324 324 324 324 323 323 322 319 316 314 313 314 315
358 358 357 356 355 354 353 352 350 350 349 348 347 347 347 346 345 343 343 344 345 344 343 343 342 343 343 342 340 339 339 339 339 339 341 341 341 341 340 339 338 339 340 339 339 339 338 338 337 335 334 334 335 334 332 331 330 329 328 327 326 325 325 325 325 324 321 316 311 308 308 309 310 311
358 358 357 356 356 355 354 353 351 350 350 350 349 347 347 347 346 344 344 345 346 345 344 343 343 344 344 343 342 341 340 340 340 339 340 341 340 340 341 340 339 339 340 340 339 339 339 338 338 336 335 335 335 334 333 332 331 329 329 328 327 325 326 326 324 320 313 308 305 305 306 308 310 311
358 358 358 357 356 356 355 354 353 351 350 350 349 348 348 347 346 344 344 345 346 345 344 343 343 345 346 345 343 343 341 341 341 340 340 340 340 339 340 340 339 339 340 340 340 339 339 339 339 337 334 334 334 334 332 331 330 329 329 329 328 327 327 325 319 312 307 304 303 304 308 311 313 314
359 358 358 358 357 356 355 355 354 353 351 350 349 348 348 347 346 345 344 344 345 345 344 343 343 343 345 345 344 343 342 342 341 341 341 341 340 340 341 341 340 340 340 341 341 340 340 340 340 338 334 333 333 332 331 329 329 328 328 329 329 328 325 320 313 309 306 304 303 304 307 310 312 313
359 359 359 359 358 358 357 356 356 354 353 351 349 348 347 346 345 345 344 344 344 345 345 344 343 343 343 344 345 344 343 342 342 341 341 341 341 342 342 342 342 341 341 342 342 341 340 340 340 338 335 334 332 329 327 326 326 327 327 328 328 325 320 315 312 310 308 306 304 304 305 306 307 308
358 358 359 359 359 359 358 357 356 356 355 353 351 349 348 346 345 344 344 343 343 344 345 345 344 343 342 342 343 344 344 343 342 342 342 342 341 341 342 342 342 341 340 342 343 341 339 340 340 338 336 334 330 327 325 324 325 326 327 326 324 320 317 315 313 312 310 308 307 307 307 307 307 307
359 358 358 359 359 359 359 358 357 357 356 355 352 351 349 347 345 344 343 343 341 342 343 345 345 344 343 342 342 343 343 344 343 343 342 342 342 342 342 342 342 341 340 341 342 341 339 340 339 338 336 333 328 326 326 326 326 327 325 323 321 318 316 315 314 313 312 312 311 311 310 310 308 308
359 358 358 359 359 359 359 359 358 358 356 355 354 351 350 349 347 345 344 343 343 341 341 342 343 343 344 343 342 341 342 343 344 343 343 343 343 343 342 341 341 341 341 341 341 340 340 339 339 338 334 330 327 326 326 325 325 324 323 321 319 317 315 315 314 313 313 313 313 312 312 311 310 310
360 359 358 358 359 358 359 360 359 359 357 356 354 352 351 350 349 347 345 344 343 343 342 341 340 340 341 343 343 342 342 342 343 343 343 342 342 343 342 342 342 342 342 342 341 340 339 338 337 336 331 328 326 325 324 323 323 322 321 320 318 316 315 315 314 313 313 314 314 313 312 312 312 312
359 359 359 359 359 358 359 359 359 360 359 357 355 352 351 350 349 348 347 345 344 343 343 342 341 340 340 341 342 343 342 343 343 343 343 343 343 343 343 343 343 343 343 342 340 339 338 336 335 333 329 327 326 323 322 322 322 321 320 319 317 316 315 315 315 314 313 314 314 313 313 313 313 313
359 359 359 359 359 359 359 359 359 360 360 358 356 353 351 350 349 348 348 347 345 343 342 342 342 341 341 341 342 343 343 343 344 344 344 344 344 344 343 343 343 343 342 342 340 338 336 335 333 331 329 327 325 322 321 321 320 320 319 317 317 316 315 315 315 314 314 314 314 313 313 313 314 313
359 359 359 359 359 359 359 359 359 360 360 359 357 354 352 350 349 349 348 347 346 345 344 343 343 343 343 342 342 343 344 345 345 345 344 344 344 344 343 343 342 342 341 340 339 337 335 335 333 331 328 325 323 322 321 320 319 318 317 317 317 316 316 315 314 313 313 314 313 313 313 314 314 314
361 360 360 360 360 360 359 359 359 359 360 359 358 356 353 351 350 350 349 348 348 347 346 345 344 344 344 344 344 344 345 345 346 346 345 344 344 344 343 342 342 341 340 340 339 336 335 335 333 330 326 323 322 322 322 320 318 317 317 317 316 316 316 315 314 313 314 313 313 313 313 314 314 314
362 361 361 361 360 361 361 360 359 359 359 359 359 357 354 353 352 352 350 349 348 348 347 346 345 344 344 344 344 345 345 346 346 346 345 344 344 343 343 342 341 340 340 340 339 337 335 334 332 330 327 324 322 321 320 319 317 317 316 316 315 315 315 314 314 314 314 313 313 313 313 314 315 315
363 362 362 361 361 362 362 361 361 360 360 360 359 358 356 355 354 353 352 350 349 348 348 347 346 345 344 344 344 344 344 345 346 346 345 344 344 343 343 342 341 340 339 339 338 337 335 333 332 329 327 324 322 320 318 318 317 316 316 316 316 315 314 313 314 314 314 314 313 313 313 315 315 315
363 363 363 362 361 361 361 361 362 362 361 361 360 359 358 357 356 354 352 351 350 348 348 347 346 345 344 344 343 343 343 344 344 346 345 344 343 343 342 341 340 339 339 338 336 334 333 332 331 328 325 323 321 319 318 317 316 316 316 316 315 314 314 314 314 314 314 313 313 313 314 315 315 316
364 364 364 363 363 362 362 361 361 362 362 362 361 361 361 359 358 356 353 352 351 349 348 347 346 345 344 343 342 342 342 342 342 343 344 344 343 343 342 341 340 339 339 338 335 332 331 332 331 328 325 322 320 318 318 317 317 317 316 316 315 314 314 315 315 314 314 313 313 313 314 315 315 316
364 364 364 364 363 363 363 362 362 362 362 362 362 362 362 361 360 356 354 353 351 350 349 347 346 346 345 344 343 342 341 341 341 342 343 344 343 342 342 341 340 339 339 337 334 331 330 330 330 328 325 323 320 319 318 318 317 316 316 315 314 314 314 314 314 314 314 313 312 313 314 314 316 317
363 363 364 364 364 364 363 363 363 362 362 362 361 361 361 361 360 356 354 353 352 350 349 348 347 346 346 345 344 343 342 341 340 340 342 343 343 343 342 341 340 339 338 336 332 329 329 329 328 326 324 322 321 320 319 318 317 316 315 315 314 314 313 313 313 313 313 312 312 313 314 315 317 318
361 362 363 363 363 363 363 363 363 363 362 361 362 361 361 361 360 357 353 353 352 351 350 349 348 348 347 346 345 344 342 341 340 340 341 342 343 342 341 339 337 336 335 334 331 329 328 329 327 325 323 322 321 321 320 318 317 316 315 314 313 313 312 312 313 313 312 312 313 314 315 316 317 317
359 359 360 361 361 361 361 360 360 360 359 358 358 357 358 358 357 355 353 352 351 350 351 350 350 349 348 346 345 344 342 341 340 340 340 341 341 341 340 337 334 332 331 330 329 327 327 328 326 324 323 322 320 319 318 317 316 315 314 313 313 313 313 312 312 312 313 314 313 313 316 317 317 316
356 356 356 357 358 358 358 357 357 357 356 355 354 353 353 353 352 351 350 349 348 348 349 351 350 349 348 347 344 343 341 340 340 340 339 340 340 339 337 334 331 328 327 326 326 326 326 326 325 323 323 321 319 318 317 317 316 315 314 314 313 313 313 312 311 310 312 313 313 314 316 317 316 315
355 354 353 353 354 354 354 354 355 355 355 355 354 353 352 352 350 349 347 346 346 347 349 349 347 346 347 346 343 341 341 340 340 340 339 339 339 337 335 332 329 326 325 324 324 324 324 324 323 322 321 320 317 316 316 317 317 316 315 314 314 314 313 312 310 310 311 312 314 315 316 315 314 314
354 353 353 353 353 352 351 351 351 352 353 353 353 352 351 350 349 348 347 347 347 348 349 348 346 344 345 345 343 341 341 340 340 340 339 338 337 335 333 331 329 326 324 323 323 322 322 322 321 320 319 318 317 315 315 316 315 315 314 314 314 313 311 309 310 311 312 313 315 315 315 315 314 313
349 349 349 349 350 349 348 348 349 349 350 350 350 350 350 349 348 347 347 347 347 348 348 349 347 345 345 344 342 341 341 340 340 340 339 337 336 333 332 332 329 325 324 323 322 322 321 320 320 319 319 319 318 318 317 315 314 314 314 313 313 311 307 306 310 314 314 315 316 315 314 314 313 312
341 342 342 343 344 344 345 345 346 346 347 347 348 349 349 349 349 348 347 347 347 347 347 348 348 348 346 344 341 340 340 340 339 339 337 336 334 332 331 331 329 326 324 323 323 322 321 320 320 320 319 319 319 319 318 317 316 315 315 314 312 309 305 305 310 315 316 316 315 314 314 313 312 312
335 335 335 336 337 337 338 338 339 340 341 342 343 344 345 346 347 347 347 347 346 346 346 347 347 348 347 345 341 339 339 339 339 338 337 335 334 331 330 329 329 326 324 324 323 322 321 320 320 320 319 319 320 320 318 317 317 316 315 314 312 309 307 307 311 315 317 316 315 314 313 312 312 314
335 335 335 335 335 335 335 335 335 336 336 336 337 338 339 340 342 343 345 346 346 346 346 346 346 347 347 345 341 339 339 338 338 337 336 334 333 331 330 328 327 326 325 324 324 323 322 321 320 320 319 319 320 320 318 317 316 316 315 314 313 312 311 310 312 315 316 315 314 313 312 312 314 315
336 336 336 336 336 335 335 336 335 335 335 335 335 335 335 336 336 338 339 342 344 345 346 346 346 346 347 346 342 339 339 339 338 336 335 333 332 331 329 328 326 325 324 324 324 324 323 321 320 320 319 319 320 319 318 317 316 316 316 316 316 316 315 314 314 316 316 314 313 312 311 312 315 316
336 336 336 336 336 336 336 336 336 335 335 335 334 335 334 334 335 335 336 338 340 342 343 345 346 346 346 345 343 340 339 338 338 336 335 333 332 330 329 327 326 325 324 324 323 323 323 322 322 321 320 320 320 319 318 317 315 316 317 317 317 317 316 315 316 316 315 314 313 311 310 313 316 315
335 335 335 335 335 335 335 335 335 335 334 334 334 334 333 334 334 334 335 336 337 338 339 341 343 344 345 345 343 340 339 338 337 336 334 333 331 329 328 327 325 325 325 324 323 323 323 323 323 322 321 321 320 317 316 314 313 313 315 315 315 315 314 314 315 316 315 314 312 310 311 313 315 314
335 335 335 335 334 334 334 334 334 334 333 333 332 332 332 333 333 334 335 335 335 336 337 337 338 340 342 344 344 341 339 337 336 335 333 332 330 328 327 326 325 324 324 324 323 323 323 322 322 321 321 320 318 315 314 313 312 312 313 312 312 312 311 312 313 313 312 312 312 311 312 314 314 314
334 334 334 334 334 334 334 334 333 332 331 331 331 331 331 332 333 334 335 335 335 336 337 337 337 337 339 341 343 342 339 338 336 334 332 330 329 327 325 325 325 324 324 324 323 323 323 321 320 320 320 318 316 315 314 313 312 312 312 311 311 310 309 311 313 313 312 311 311 311 312 313 314 314
334 334 334 334 333 333 333 332 331 330 330 329 329 329 330 330 332 334 335 336 336 336 336 337 337 337 337 338 339 340 339 338 336 333 331 329 328 326 325 325 324 324 324 324 323 322 322 321 320 320 318 316 315 314 313 313 312 312 312 312 312 311 309 311 314 314 313 312 312 312 312 312 312 313
334 334 334 333 333 332 331 330 329 329 328 328 328 328 328 328 329 330 332 333 335 336 336 336 336 336 336 337 338 338 339 338 335 332 330 328 327 326 325 325 324 324 323 323 322 321 321 320 319 318 317 316 315 314 314 313 313 313 312 312 312 310 310 312 313 313 312 312 312 312 313 313 313 313
Wind_Speed
21 22 23 20 20 19 16 17 19 15 15 16 16 16 15 12 7 4 3 5 10 13 14 15 17 19 20 19 19 19 17 13 12 13 15 16 15 14 13 13 12 12 12 13 13 13 11 11 10 10 11 11 11 12 13 13 12 11 10 9 8 9 9 9 9 9 9 9 9 10 9 10 10 10
22 22 24 24 23 22 17 16 19 17 15 15 16 16 17 16 12 9 5 6 12 15 14 15 17 19 22 21 19 19 17 15 14 13 14 15 14 13 13 14 14 13 14 14 13 13 12 11 11 10 10 11 12 13 13 14 13 12 11 10 10 10 10 10 10 9 9 10 10 11 11 11 11 11
23 23 23 24 25 24 21 17 16 17 17 16 16 17 18 17 16 14 9 5 11 16 14 14 17 19 23 24 22 20 18 16 16 15 14 14 13 12 12 13 13 13 13 13 13 13 13 12 11 10 10 11 12 13 14 14 14 13 12 11 12 12 12 11 10 10 10 11 12 12 12 12 11 11
25 25 24 23 25 25 24 21 17 16 19 19 18 18 18 17 17 17 13 7 8 14 15 12 14 19 23 24 23 21 19 17 17 16 16 15 14 14 14 14 13 13 12 12 12 13 13 13 12 11 12 12 13 14 15 15 14 14 13 13 13 13 13 12 12 11 12 13 14 13 13 12 11 10
27 27 26 25 25 25 25 24 20 17 18 20 20 20 19 19 18 18 17 13 10 11 12 10 12 17 22 23 22 20 19 18 17 17 16 17 17 17 16 15 15 15 14 13 13 13 13 13 13 14 14 14 14 15 15 15 14 13 13 13 14 14 14 13 13 13 14 15 15 14 13 12 11 10
30 29 29 28 26 25 25 25 24 21 19 21 22 23 22 22 22 21 21 18 14 12 12 11 13 18 21 22 21 20 19 19 18 18 17 18 19 19 18 17 16 16 16 16 15 14 13 14 15 15 15 15 15 15 15 14 12 12 13 13 14 14 14 14 14 15 16 16 15 14 13 13 12 11
32 31 30 30 29 28 27 27 27 25 22 22 24 25 26 26 25 25 24 22 19 17 16 16 18 19 21 23 21 20 19 18 18 19 19 19 19 19 20 19 18 18 17 16 14 13 14 15 15 16 16 16 16 16 14 12 11 11 11 12 12 13 13 14 14 15 15 15 15 14 14 15 14 12
34 33 33 32 31 30 30 29 30 29 27 25 25 27 28 29 28 28 27 26 24 21 20 19 20 19 21 23 22 20 20 20 20 20 20 19 19 19 20 21 20 18 17 15 15 14 15 15 16 16 16 17 17 16 14 12 11 10 10 10 10 11 12 12 12 12 13 14 15 16 17 17 16 14
35 35 35 34 33 32 32 31 32 33 32 30 28 29 30 31 31 29 28 28 26 24 23 22 21 19 19 22 23 23 22 22 22 21 21 21 20 19 20 21 21 19 17 16 16 16 17 17 17 17 17 17 17 17 15 13 11 9 8 8 9 10 10 10 10 11 13 15 17 18 19 19 18 16
37 37 37 36 35 34 34 34 34 34 35 35 33 32 32 32 32 31 30 29 28 27 26 24 22 21 21 23 24 24 24 24 24 23 22 22 21 21 21 22 22 21 20 18 17 18 18 18 19 18 17 17 17 17 16 14 12 10 9 9 10 11 10 10 10 11 13 16 20 21 21 19 19 18
38 38 38 38 37 37 37 37 37 36 36 37 37 36 35 34 33 33 31 30 29 29 28 26 25 24 24 25 26 25 25 24 25 25 24 23 24 24 23 24 24 23 23 22 21 20 18 18 18 17 16 17 17 17 16 15 12 10 11 11 12 12 12 12 12 12 14 16 19 20 19 18 18 17
39 39 39 39 39 39 40 40 39 39 38 38 38 37 36 35 34 34 32 31 31 30 29 27 26 25 25 26 26 25 25 25 26 28 28 27 27 27 26 25 24 24 25 24 24 22 20 18 18 17 17 18 18 18 17 15 13 12 13 13 13 14 13 12 12 13 15 16 16 16 16 15 14 13
39 39 39 40 41 41 41 42 41 41 41 40 39 38 37 36 35 34 33 32 31 31 29 28 27 25 24 26 26 26 29 31 32 31 29 28 29 28 27 27 26 25 25 25 26 25 23 21 19 18 17 17 17 17 16 15 14 14 14 15 15 15 13 12 12 13 14 15 15 14 13 12 11 11
39 39 40 41 42 42 42 42 42 43 43 42 42 41 39 38 37 35 34 32 32 31 29 29 28 25 25 28 30 31 33 34 32 30 29 29 29 26 24 26 27 27 26 26 28 28 25 23 21 19 18 16 15 15 15 14 14 14 15 16 16 14 12 10 11 12 14 15 14 14 13 13 12 12
39 39 40 40 41 42 42 43 43 44 44 44 44 43 42 42 42 40 37 35 34 33 30 30 30 28 28 31 33 33 33 33 33 32 31 30 27 24 21 21 24 27 28 28 29 29 26 23 22 21 19 17 15 15 15 14 14 14 15 15 15 13 10 8 10 13 13 13 12 12 12 12 13 12
39 39 39 39 39 40 42 43 44 44 45 45 45 44 44 44 45 45 43 40 38 36 33 30 31 33 33 33 34 35 34 34 34 34 32 31 30 27 24 22 24 26 27 27 29 28 25 23 23 23 21 19 17 15 14 12 14 15 15 15 13 10 7 8 10 12 11 10 9 9 10 10 11 11
39 39 39 39 39 39 40 42 43 43 45 45 46 46 46 46 46 46 46 45 43 42 39 35 35 38 37 35 38 39 38 35 34 33 32 32 32 30 29 30 31 28 25 26 27 27 26 24 24 25 23 19 16 15 15 15 16 16 15 14 11 9 7 8 10 10 10 9 8 9 9 9 10 10
40 40 39 39 39 39 39 40 42 43 43 44 46 47 47 48 48 47 48 48 46 44 42 41 41 42 40 40 41 41 40 38 37 35 35 35 34 34 34 35 35 30 26 25 24 23 25 25 25 25 22 17 15 17 17 17 16 16 15 13 10 8 7 7 9 10 9 9 8 8 8 8 8 8
40 40 40 40 40 40 40 40 41 42 42 42 44 46 48 49 49 49 51 51 49 48 47 46 45 45 44 43 42 40 40 41 41 40 39 38 37 35 33 30 30 29 27 26 23 22 24 25 24 24 21 16 16 16 15 14 15 14 13 11 9 9 8 7 8 10 10 9 8 7 8 8 8 7
39 39 40 40 40 40 41 40 41 42 42 42 42 44 46 48 48 49 52 53 53 53 51 49 49 47 45 44 42 41 40 41 41 38 36 36 34 29 25 23 26 27 27 28 27 24 22 24 25 24 20 17 17 16 14 13 13 14 13 11 10 11 9 8 8 9 10 9 8 8 8 8 9 8
37 38 39 40 40 40 40 40 41 41 41 41 42 42 43 45 46 49 51 50 52 54 54 53 52 49 46 44 43 42 42 41 41 37 34 33 32 28 22 20 24 27 28 30 30 27 23 23 24 22 18 17 18 17 15 14 14 14 14 13 13 13 10 8 9 9 10 10 9 9 9 9 10 11
36 36 38 39 40 41 40 40 40 40 40 42 42 41 41 41 44 50 48 43 46 51 53 54 52 49 47 45 43 43 42 42 42 41 39 36 35 31 25 23 24 25 29 32 31 28 26 25 23 21 17 16 19 19 17 15 16 16 16 15 15 13 10 9 9 10 11 10 10 10 9 9 11 13
36 37 37 38 40 42 42 40 40 40 42 43 43 42 40 40 46 51 46 41 43 45 48 51 51 49 48 47 45 44 43 43 44 46 45 42 39 35 31 29 23 16 21 33 34 29 27 26 25 23 16 11 14 20 19 17 17 18 17 16 15 12 11 11 10 11 11 11 11 11 9 10 12 14
37 38 37 36 37 39 41 43 43 42 43 45 45 43 41 44 49 49 43 42 43 42 43 48 50 50 48 46 45 44 45 45 46 48 47 46 45 41 37 34 29 21 24 34 37 32 28 27 27 28 22 13 9 15 19 18 17 16 16 16 15 13 13 12 11 11 12 12 12 11 10 10 11 12
37 37 36 36 37 38 39 41 43 45 46 46 46 46 48 51 51 45 40 40 42 41 42 43 45 46 46 45 44 44 44 46 48 48 49 49 49 47 42 38 34 30 30 33 36 35 31 27 28 29 27 20 13 13 17 18 17 16 15 16 16 14 13 13 12 12 12 12 12 11 10 10 10 11
36 35 35 36 38 39 39 39 41 43 46 46 47 50 52 53 51 46 42 40 39 40 41 40 40 42 43 43 44 44 44 46 47 47 48 49 49 48 48 45 40 36 35 34 34 34 33 31 32 31 28 23 18 15 17 17 16 16 16 16 16 14 14 13 13 12 12 13 13 12 10 10 11 13
36 35 35 36 38 40 40 40 40 40 41 45 48 51 52 53 52 49 45 42 39 38 39 38 39 41 42 42 44 45 46 46 46 46 47 48 48 47 47 47 45 42 41 38 34 34 34 34 35 35 32 28 21 16 16 17 16 16 18 18 16 15 14 14 14 13 13 13 13 12 11 12 14 15
37 34 35 37 40 41 41 42 42 41 41 43 46 49 51 52 52 49 46 43 39 36 36 38 40 41 42 42 44 46 48 48 47 48 47 45 46 45 43 44 44 41 39 38 35 35 37 37 36 37 36 32 25 19 17 17 17 18 18 16 14 13 14 14 14 13 13 13 14 14 13 14 15 14
37 36 38 40 41 42 42 43 43 43 44 45 46 47 48 50 51 50 47 43 39 36 37 39 41 42 44 46 48 50 49 48 47 48 45 41 41 41 39 39 39 39 38 38 36 36 38 39 37 37 35 32 28 23 19 18 18 19 19 16 14 13 14 13 14 14 15 15 15 14 14 15 15 13
34 32 34 36 37 39 39 39 40 42 43 44 45 47 48 49 51 50 47 43 39 36 39 41 42 43 45 47 48 47 46 45 46 45 43 39 38 39 38 36 36 36 36 36 36 36 39 41 38 36 34 29 26 24 22 20 19 19 19 18 15 13 12 13 13 14 14 14 14 14 14 15 14 12
37 34 32 30 31 31 31 31 33 36 37 38 40 42 44 47 49 49 49 46 40 38 42 45 45 46 45 44 43 43 42 42 44 44 42 39 38 39 38 35 34 34 34 34 35 35 38 40 38 34 32 28 24 23 22 21 20 20 19 18 16 13 11 11 12 12 11 12 14 14 14 13 12 11
33 35 35 34 33 32 30 30 31 32 33 34 35 36 38 41 43 45 46 44 39 40 45 45 41 41 41 40 39 39 38 39 42 44 44 42 40 39 37 33 31 31 31 32 35 36 37 38 36 32 30 26 23 22 21 20 20 21 20 19 18 16 14 13 13 13 12 13 14 14 13 12 11 10
15 20 26 30 32 33 33 33 33 35 36 36 37 38 38 39 40 41 42 42 40 43 46 42 38 38 39 38 37 37 38 41 44 45 44 43 40 38 36 32 30 31 32 32 34 35 34 32 30 27 24 21 18 18 20 20 21 23 23 21 19 17 16 15 14 13 13 14 15 14 13 11 11 13
10 12 16 21 25 28 29 29 30 32 33 34 36 38 38 39 39 40 41 43 44 45 45 42 41 43 43 39 36 37 39 41 42 43 45 45 41 38 37 33 31 32 34 33 33 34 32 28 25 22 19 18 15 14 17 20 22 24 24 21 20 18 17 14 13 12 13 15 16 14 12 10 12 14
12 13 15 18 21 23 23 24 26 28 29 30 32 34 35 37 38 39 42 44 45 46 46 45 46 47 45 40 38 39 40 39 38 40 43 42 41 41 42 39 36 36 37 36 36 37 35 32 28 23 20 18 16 14 18 24 24 23 23 22 20 20 18 15 13 13 14 16 16 14 11 11 12 14
6 8 11 14 17 19 20 22 25 26 27 29 31 32 33 35 36 38 41 44 45 45 45 46 46 46 43 39 37 38 39 38 37 39 40 41 42 43 42 40 39 39 39 38 39 39 38 36 34 28 19 14 10 9 17 26 28 26 25 23 21 20 18 15 14 15 15 16 16 14 12 12 14 14
5 5 6 9 13 15 18 21 23 25 27 29 32 33 34 35 37 39 42 43 43 44 45 45 46 46 43 38 35 36 39 41 41 41 42 44 44 42 39 37 37 38 39 38 39 40 40 37 36 30 19 10 6 6 12 21 27 28 27 24 21 20 18 16 16 17 18 18 17 15 14 14 15 13
9 8 9 11 14 16 18 20 22 24 26 29 31 33 35 36 38 40 41 41 42 43 45 45 45 45 42 38 36 36 38 39 40 42 44 45 43 41 40 39 37 37 38 37 36 39 40 37 35 32 23 12 6 7 9 13 19 23 23 21 21 21 19 18 18 19 19 19 17 16 15 14 14 12
11 12 13 15 17 19 21 23 24 26 28 30 33 34 36 38 39 39 39 40 41 42 43 43 44 43 41 39 39 41 42 42 42 43 45 46 45 43 42 40 37 36 35 33 32 35 36 35 35 35 32 24 18 19 20 17 16 16 15 15 19 23 22 20 20 20 19 18 17 16 15 14 14 14
15 15 17 18 19 21 23 25 27 29 31 33 35 36 38 39 40 40 39 39 40 40 41 42 42 42 41 41 40 41 43 46 47 47 47 48 47 46 45 43 39 37 35 32 31 32 33 35 38 41 39 33 29 28 25 18 13 12 10 10 14 18 19 20 22 22 21 20 19 17 16 16 16 15
16 17 19 19 20 23 24 26 28 30 32 35 36 37 39 40 41 41 41 41 40 40 40 41 40 38 39 41 42 41 41 41 43 45 47 46 44 45 46 44 41 39 36 31 29 32 35 38 41 41 37 32 27 22 16 11 10 12 12 11 12 14 16 19 23 25 23 21 20 17 16 17 17 16
16 18 19 20 22 24 25 27 29 31 33 35 37 38 40 41 42 42 42 41 40 39 39 39 39 38 37 38 40 42 42 42 42 43 44 45 44 43 41 39 37 37 35 31 31 35 36 36 36 35 32 30 27 21 14 11 13 14 14 13 13 13 14 16 21 24 24 23 21 18 16 15 12 11
17 19 20 21 23 24 25 26 28 30 33 35 37 38 39 40 41 40 38 36 35 36 36 36 36 37 37 38 39 40 42 44 45 44 44 43 42 41 40 38 38 39 38 36 35 34 32 30 32 33 31 30 29 25 19 17 18 17 15 14 13 11 11 12 16 19 22 23 23 21 19 17 12 9
18 19 20 21 22 22 23 25 27 29 32 34 35 36 36 37 37 38 37 36 35 34 34 34 35 36 37 38 38 35 34 38 42 44 46 45 42 40 40 39 39 40 40 38 35 32 30 30 32 33 31 30 30 27 22 20 19 18 16 15 13 12 12 12 12 14 17 20 21 21 22 23 20 17
17 17 18 20 20 20 21 23 25 28 30 31 31 32 31 30 29 29 29 30 32 34 36 35 33 32 35 38 38 36 36 37 36 33 35 39 40 38 35 34 32 32 33 34 33 31 30 30 31 31 30 29 29 27 24 22 20 19 17 16 14 13 13 12 11 12 14 16 16 16 19 21 20 18
Wind_Direction
214 209 208 211 213 215 221 216 211 218 226 224 221 216 205 186 166 162 200 223 222 221 220 216 215 214 212 213 210 212 221 226 230 236 235 233 236 240 243 245 246 251 257 257 254 255 258 262 270 279 285 291 297 301 304 308 310 311 311 311 315 318 320 319 316 314 311 307 306 306 305 303 302 300
215 216 213 213 217 221 225 221 216 218 222 223 219 215 212 206 194 178 178 219 224 221 219 217 217 213 210 212 211 213 223 228 229 232 232 232 239 248 251 249 248 252 257 256 250 250 252 256 266 277 286 295 301 304 306 307 308 310 310 312 316 319 319 319 317 315 313 311 310 309 309 307 304 302
214 218 218 217 218 221 226 227 222 222 222 221 217 212 214 218 214 200 182 198 228 224 219 219 224 220 211 211 214 215 221 229 232 235 235 235 242 250 252 248 247 252 256 252 246 245 248 253 263 274 285 298 306 308 308 305 304 305 307 311 315 317 318 317 316 315 314 313 314 313 311 309 305 301
214 217 220 221 219 221 227 230 229 227 222 218 215 211 211 214 218 215 204 199 223 227 227 227 228 223 212 208 212 216 220 225 230 236 239 238 239 245 247 246 247 251 253 252 249 249 250 254 261 272 282 294 305 311 309 304 300 301 304 308 312 314 315 315 315 315 317 317 318 318 315 312 309 303
215 217 219 222 221 221 227 230 230 230 224 219 217 215 212 212 215 218 216 215 221 224 225 228 223 213 206 206 212 219 222 222 225 232 236 236 238 241 243 245 248 249 253 257 257 254 252 255 261 270 279 287 299 310 309 303 299 299 303 307 311 312 311 312 313 315 319 321 321 321 320 318 316 312
214 217 219 221 222 222 226 228 228 229 227 222 221 220 220 219 219 220 220 218 220 220 211 204 202 202 204 209 213 217 222 223 224 228 230 234 240 241 240 243 247 250 256 259 257 253 253 258 264 269 275 282 291 302 304 300 297 298 303 306 308 307 305 305 309 314 318 321 322 323 323 323 322 319
214 215 218 221 221 220 223 226 227 227 227 225 223 223 224 224 223 223 222 219 218 219 212 198 195 199 206 213 215 218 224 228 228 229 231 236 243 243 240 241 245 250 255 255 251 254 257 260 264 267 272 277 284 292 295 293 293 296 300 301 299 297 297 301 307 314 319 321 321 322 324 325 323 320
215 215 216 219 220 219 220 223 225 225 226 225 223 223 224 226 225 224 224 223 221 220 218 212 208 208 210 214 217 218 220 226 231 234 235 237 242 246 244 242 245 250 254 249 245 252 257 259 262 266 269 273 278 283 286 284 286 292 295 291 288 288 292 303 315 321 323 320 317 315 316 316 315 314
216 215 216 218 218 217 217 219 221 222 224 224 224 224 224 225 225 224 224 225 224 222 221 220 219 217 213 211 214 216 215 219 228 234 237 237 240 246 246 243 245 250 251 245 244 250 255 259 263 265 266 270 272 274 277 276 277 285 287 280 277 282 290 305 316 318 317 314 308 306 306 305 303 303
217 216 217 218 217 217 217 217 218 219 220 221 222 224 225 225 224 223 223 224 224 224 224 224 221 218 214 209 210 214 217 219 223 227 233 236 239 244 245 241 239 242 246 244 245 250 253 256 260 260 261 264 265 267 270 267 267 274 275 268 268 275 284 294 301 302 303 303 301 300 300 299 297 297
220 219 218 218 218 218 218 218 218 218 218 219 221 223 225 224 222 220 221 222 221 222 223 224 223 220 218 215 213 216 221 224 226 226 227 230 234 237 241 242 238 237 242 244 245 249 250 251 253 255 260 262 261 261 261 259 261 267 265 260 261 267 276 284 289 293 296 297 297 297 297 297 295 295
222 221 221 220 220 220 220 220 219 219 218 218 220 222 223 223 220 218 218 217 217 218 219 220 221 221 220 218 217 218 216 216 222 225 225 228 232 233 234 240 241 239 241 244 246 247 246 245 247 252 258 258 254 253 254 255 258 262 261 258 259 264 272 279 286 296 302 302 301 297 294 296 296 297
224 223 223 223 222 222 223 223 222 222 221 220 220 220 220 220 219 217 216 214 213 214 215 217 217 218 218 215 212 211 209 211 218 222 223 228 235 235 233 237 241 241 241 243 246 247 247 247 249 251 254 254 247 245 249 250 252 256 258 257 258 262 268 276 287 303 310 307 301 296 292 291 291 294
223 224 224 225 225 225 225 225 225 225 224 224 224 222 220 219 218 217 215 214 213 212 212 213 213 213 216 215 211 210 212 214 217 219 218 223 231 234 233 237 241 241 240 241 242 245 247 247 245 245 248 246 239 239 245 249 250 253 254 252 254 258 263 275 296 312 315 308 300 294 289 287 286 287
223 224 225 226 227 227 227 227 227 227 227 227 227 227 225 223 221 219 216 214 213 213 213 214 212 212 216 217 215 214 215 214 215 218 218 219 222 223 224 232 238 238 235 235 238 241 242 240 237 236 237 239 240 245 249 249 248 250 251 248 247 249 259 282 307 316 315 310 304 298 293 291 289 287
223 223 225 226 227 228 227 227 228 228 228 229 229 229 229 229 227 225 222 219 216 215 215 215 214 215 218 218 217 216 215 214 215 217 217 217 218 218 219 224 231 234 231 228 232 238 237 232 231 231 231 236 243 247 245 243 242 245 246 241 238 244 264 293 309 315 318 318 317 313 308 301 296 292
224 224 225 226 227 228 228 228 228 228 228 229 229 230 231 231 231 230 229 227 224 221 218 217 218 219 218 218 219 218 217 215 214 213 215 217 217 218 220 225 229 232 229 223 225 232 233 228 227 231 235 239 243 242 240 242 242 241 237 232 235 247 265 291 306 312 319 323 322 319 314 309 305 300
225 225 225 225 227 228 228 228 228 228 227 227 227 228 229 230 231 231 231 231 229 227 225 223 225 226 223 222 224 222 218 216 214 212 213 215 217 219 224 229 231 231 229 223 219 225 230 227 226 233 238 236 236 238 240 240 237 234 231 230 237 250 259 281 302 309 314 318 318 314 311 309 311 311
228 228 227 228 228 228 229 229 228 227 226 226 225 226 227 229 230 231 231 230 229 229 229 228 231 232 230 228 228 224 221 220 220 219 219 220 221 222 225 229 231 230 229 225 217 219 227 225 224 232 236 230 230 236 238 234 232 231 231 233 243 252 255 271 293 301 304 307 309 308 306 305 307 312
232 231 231 230 231 231 231 230 230 229 227 225 225 225 226 228 230 231 233 232 231 231 231 231 233 234 234 232 230 227 223 223 223 222 222 222 220 217 216 219 222 223 224 221 216 218 225 225 225 231 232 225 227 232 230 227 228 229 232 241 251 250 248 264 282 290 295 298 302 301 299 302 303 300
235 235 234 233 234 234 234 233 232 231 228 226 225 224 226 227 230 233 234 233 232 233 233 234 235 235 235 235 233 229 226 225 222 216 214 214 211 207 207 210 214 217 216 215 214 217 223 226 226 227 224 220 222 224 224 227 233 237 242 248 250 244 243 257 271 281 288 290 291 293 295 297 298 295
239 238 237 236 236 236 237 236 235 233 230 227 225 225 225 226 230 234 233 231 232 234 234 235 235 235 235 235 234 231 228 227 223 215 212 211 206 203 206 207 210 215 216 212 210 213 222 227 223 217 211 213 218 221 228 237 242 246 248 246 241 238 240 249 261 274 281 282 284 288 291 292 292 291
240 241 240 239 238 239 239 238 237 236 233 230 228 226 224 226 231 234 232 228 229 231 231 232 233 232 233 233 232 230 227 226 223 220 217 212 206 204 206 205 203 209 216 213 208 208 216 221 217 208 198 199 217 224 231 238 239 240 239 232 228 229 232 241 258 268 270 276 281 282 283 286 288 287
239 240 241 241 241 241 241 240 239 238 236 233 231 228 225 228 234 236 233 230 229 229 229 231 231 231 231 230 229 228 225 224 223 222 219 214 209 206 205 203 202 207 214 212 208 207 212 215 213 207 201 199 207 215 222 226 226 226 226 222 222 226 231 242 258 263 263 271 277 279 281 281 281 284
237 239 240 241 243 243 243 242 240 240 240 237 234 231 231 234 238 238 235 234 232 230 231 231 231 231 231 230 228 227 224 223 222 221 219 217 213 210 206 205 205 210 215 214 209 207 208 208 206 203 202 206 205 198 205 212 216 222 225 223 223 227 235 246 252 251 256 269 275 278 278 274 275 283
238 239 240 242 244 245 245 245 243 242 242 240 238 237 237 240 241 239 237 236 233 230 230 231 230 230 229 228 227 226 225 224 222 221 220 218 216 214 213 212 211 211 213 213 210 208 205 203 202 197 194 202 206 199 198 206 216 223 221 218 223 230 237 240 241 245 255 267 274 275 269 269 279 282
239 240 241 243 245 246 247 247 247 246 245 243 243 244 243 243 243 240 238 236 232 228 228 229 230 229 227 226 226 225 225 225 223 222 221 220 218 216 216 218 220 220 217 214 211 211 207 204 203 199 196 196 194 192 200 209 215 214 212 216 226 233 233 231 234 246 256 259 266 271 268 270 276 275
241 241 243 245 247 247 247 248 249 248 247 247 247 248 248 246 243 240 237 235 232 229 227 227 229 229 227 225 225 225 225 225 224 224 223 221 219 217 217 219 221 223 222 217 213 210 207 204 202 202 202 199 190 187 201 211 212 211 211 215 220 219 220 228 236 245 250 254 262 265 265 268 271 268
243 244 245 247 248 249 248 248 249 249 248 249 250 251 251 249 244 239 237 236 233 230 229 229 229 229 228 226 227 226 225 224 223 223 222 220 217 216 215 216 218 220 220 217 213 208 206 206 204 200 201 201 197 198 206 211 214 215 214 212 212 214 220 229 236 241 247 253 257 256 258 264 267 260
241 243 246 249 251 251 251 249 248 249 250 251 252 252 252 250 245 241 238 236 232 231 233 234 233 232 231 230 229 226 223 220 220 220 219 216 213 211 209 207 209 212 214 214 213 210 207 207 205 199 196 197 201 208 213 212 211 214 216 216 218 220 224 229 233 240 247 250 252 258 264 264 257 248
244 244 247 250 252 254 255 254 253 253 254 254 255 255 253 249 246 243 241 238 234 234 237 237 236 235 235 232 228 224 219 218 218 217 215 212 210 207 204 201 200 202 205 208 210 210 208 207 206 202 197 195 199 209 213 212 213 215 217 219 220 219 220 226 232 238 241 244 254 267 267 254 240 245
254 253 253 254 256 258 261 263 263 264 264 264 265 264 261 257 253 249 247 244 240 239 240 241 240 240 239 233 227 221 217 216 217 216 212 210 208 204 199 196 195 194 194 197 201 203 205 206 206 206 205 203 204 206 206 208 216 220 220 220 223 227 229 234 241 240 233 242 260 265 253 239 242 270
268 262 260 260 260 262 264 266 266 267 268 269 269 268 266 264 260 255 251 249 245 242 242 241 242 245 244 237 226 217 213 215 215 213 209 207 205 200 197 196 194 189 186 188 191 194 198 203 205 207 210 213 213 208 203 204 213 222 225 224 226 230 234 240 244 237 230 245 258 251 235 239 265 287
263 258 257 259 261 261 262 264 265 266 267 267 267 267 265 262 259 255 252 249 247 245 243 240 239 240 240 236 226 214 210 212 212 209 207 204 199 195 195 196 194 191 187 186 186 187 190 195 199 201 207 212 209 208 212 215 218 224 227 227 228 232 237 240 235 227 235 249 251 240 237 256 276 286
255 253 252 257 263 266 269 271 272 273 274 273 271 271 269 264 260 257 253 251 249 247 245 242 240 238 236 232 225 215 210 211 210 206 204 201 196 195 196 194 192 190 187 183 182 184 186 187 187 187 194 196 191 201 222 227 227 228 227 228 232 237 239 237 229 229 242 247 239 235 248 265 275 283
260 264 264 268 275 280 282 284 284 284 285 283 281 279 277 272 267 262 258 256 253 249 246 244 242 240 237 231 223 214 208 205 204 202 200 198 197 198 198 196 193 190 186 183 183 182 181 182 181 179 180 180 173 194 224 227 227 229 229 231 235 237 236 232 228 234 242 237 229 236 256 269 278 284
20 337 306 293 291 291 288 288 289 288 287 287 285 283 280 278 275 271 268 265 260 255 252 249 246 244 240 231 219 212 207 203 200 198 197 198 199 197 196 196 195 190 186 186 185 182 178 179 180 178 176 172 172 200 220 223 226 229 232 235 236 234 230 227 227 234 239 233 231 244 260 269 275 274
9 348 327 314 308 303 298 294 293 291 290 289 287 285 283 281 279 277 275 271 265 260 257 253 250 247 243 230 216 209 207 205 202 197 196 198 198 195 193 193 192 188 185 186 185 182 180 178 180 183 183 174 175 203 207 208 218 226 229 231 234 233 228 223 226 233 233 229 236 251 259 263 266 263
358 344 332 324 319 315 311 307 303 300 297 295 292 289 287 285 282 280 277 272 269 266 262 258 253 250 245 235 220 209 205 204 201 199 198 198 197 195 192 189 185 182 181 182 181 180 180 178 181 187 190 187 192 204 202 196 206 220 224 226 230 231 226 220 221 227 229 231 240 251 254 255 256 256
352 343 335 330 326 322 317 312 309 305 301 298 295 292 290 287 283 279 275 271 269 268 267 264 259 252 246 239 228 215 209 205 202 199 199 198 197 194 190 186 181 177 174 174 176 176 177 182 189 194 196 196 201 206 204 200 201 207 205 204 213 219 220 218 217 220 227 234 240 246 248 247 246 249
347 340 336 333 330 326 320 316 313 309 305 302 300 298 296 292 287 282 277 272 268 267 268 269 268 261 251 242 232 221 214 210 206 202 199 195 194 194 190 183 176 174 173 170 169 171 178 189 197 198 197 197 197 195 190 188 188 188 187 185 187 195 206 216 220 224 231 238 239 238 243 245 246 253
345 339 336 334 331 327 323 319 315 311 308 308 307 305 303 299 294 289 282 275 269 266 264 266 269 269 264 254 241 228 218 211 207 204 199 192 188 188 187 180 173 171 170 165 164 170 181 191 194 192 191 192 190 184 180 187 189 185 184 184 187 194 206 219 226 231 237 242 240 235 235 238 240 248
347 341 335 332 331 328 323 319 317 316 316 316 314 312 308 304 300 294 286 277 270 266 262 261 263 265 266 263 254 240 225 214 206 200 195 191 187 182 178 177 174 169 164 160 161 168 177 184 185 183 185 188 188 187 190 194 193 191 193 197 202 211 221 230 236 236 238 242 243 241 241 240 235 237
343 338 333 331 330 328 325 325 326 328 328 327 324 322 318 312 306 299 290 280 272 267 264 263 262 262 263 265 264 256 240 224 213 201 191 186 183 179 175 174 171 164 158 153 154 159 168 176 179 181 182 185 189 190 192 192 193 197 203 208 215 226 235 239 239 233 231 234 238 240 242 244 245 250
336 332 332 331 331 331 333 338 340 340 339 337 335 333 332 331 329 323 312 297 283 272 267 265 263 263 263 262 263 262 250 231 216 203 190 180 174 169 165 159 152 149 147 146 146 152 161 169 175 179 182 186 190 195 196 197 198 200 201 206 219 234 237 232 224 218 220 227 234 238 240 243 246 251